Back to catalog

FENGYUN 1C DEB *

AliveSSO
NORAD 46989·DEBRIS·🇨🇳 China

Launched May 10, 1999 from Taiyuan Satellite Launch Center

Loading…

Next Passes (next 24 hours)

TLE

AgingSource: Space-Track

Epoch: Sep 5, 2026, 10:20 UTC

1 46989U 99025EZP 26248.43067619  .00001697  00000-0  13260-2 0  9996
2 46989  99.5257  57.2361 0230427 356.2902  32.4998 13.81967603747236

Track FENGYUN 1C DEB * in real time with AllMySat

Download on the App Store